Time,TemperatureF,DewpointF,PressureIn,WindDirection,WindDirectionDegrees,WindSpeedMPH,WindSpeedGustMPH,Humidity,HourlyPrecipIn,Conditions,Clouds,dailyrainin,SoftwareType,DateUTC
2013-05-31 00:03:00,75.0,-99.9,-100.00,SSE,162,0.0,-999.0,-999,-99.99,,,-99.99,,2013-05-31 04:03:00,
2013-05-31 00:12:00,75.0,-99.9,-100.00,SSE,162,0.0,-999.0,-999,-99.99,,,-99.99,,2013-05-31 04:12:00,
2013-05-31 00:23:00,75.0,-99.9,-100.00,SSE,162,0.0,-999.0,-999,-99.99,,,-99.99,,2013-05-31 04:23:00,
2013-05-31 00:33:00,74.0,-99.9,-100.00,SSE,162,0.0,-999.0,-999,-99.99,,,-99.99,,2013-05-31 04:33:00,
2013-05-31 00:43:00,74.0,-99.9,-100.00,SSE,162,0.0,-999.0,-999,-99.99,,,-99.99,,2013-05-31 04:43:00,
2013-05-31 00:53:00,74.0,-99.9,-100.00,SSE,162,2.0,-999.0,-999,-99.99,,,-99.99,,2013-05-31 04:53:00,
2013-05-31 01:02:00,74.0,-99.9,-100.00,SSE,162,0.0,-999.0,-999,-99.99,,,-99.99,,2013-05-31 05:02:00,
2013-05-31 01:12:00,74.0,-99.9,-100.00,SSE,162,0.0,-999.0,-999,-99.99,,,-99.99,,2013-05-31 05:12:00,
2013-05-31 01:22:00,74.0,-99.9,-100.00,SSE,162,0.0,-999.0,-999,-99.99,,,-99.99,,2013-05-31 05:22:00,
2013-05-31 01:32:00,74.0,-99.9,-100.00,SSE,162,0.0,-999.0,-999,-99.99,,,-99.99,,2013-05-31 05:32:00,
2013-05-31 01:42:00,74.0,-99.9,-100.00,SSE,162,0.0,-999.0,-999,-99.99,,,-99.99,,2013-05-31 05:42:00,
2013-05-31 01:52:00,73.0,-99.9,-100.00,SSE,162,0.0,-999.0,-999,-99.99,,,-99.99,,2013-05-31 05:52:00,
2013-05-31 02:02:00,73.0,-99.9,-100.00,SSE,162,0.0,-999.0,-999,-99.99,,,-99.99,,2013-05-31 06:02:00,
2013-05-31 02:12:00,73.0,-99.9,-100.00,SSE,162,0.0,-999.0,-999,-99.99,,,-99.99,,2013-05-31 06:12:00,
2013-05-31 02:22:00,73.0,-99.9,-100.00,SSE,162,0.0,-999.0,-999,-99.99,,,-99.99,,2013-05-31 06:22:00,
2013-05-31 02:32:00,73.0,-99.9,-100.00,SSE,162,0.0,-999.0,-999,-99.99,,,-99.99,,2013-05-31 06:32:00,
2013-05-31 02:42:00,73.0,-99.9,-100.00,SSE,161,2.0,-999.0,-999,-99.99,,,-99.99,,2013-05-31 06:42:00,
2013-05-31 02:52:00,73.0,-99.9,-100.00,SSE,161,2.0,-999.0,-999,-99.99,,,-99.99,,2013-05-31 06:52:00,
2013-05-31 03:02:00,73.0,-99.9,-100.00,SSE,161,2.0,-999.0,-999,-99.99,,,-99.99,,2013-05-31 07:02:00,
2013-05-31 03:12:00,73.0,-99.9,-100.00,SSE,161,1.0,-999.0,-999,-99.99,,,-99.99,,2013-05-31 07:12:00,
2013-05-31 03:22:00,73.0,-99.9,-100.00,SSE,161,1.0,-999.0,-999,-99.99,,,-99.99,,2013-05-31 07:22:00,
2013-05-31 03:32:00,73.0,-99.9,-100.00,SSE,161,0.0,-999.0,-999,-99.99,,,-99.99,,2013-05-31 07:32:00,
2013-05-31 03:42:00,73.0,-99.9,-100.00,SSE,161,0.0,-999.0,-999,-99.99,,,-99.99,,2013-05-31 07:42:00,
2013-05-31 03:53:00,73.0,-99.9,-100.00,SSE,161,0.0,-999.0,-999,-99.99,,,-99.99,,2013-05-31 07:53:00,
2013-05-31 04:02:00,73.0,-99.9,-100.00,SSE,164,3.0,-999.0,-999,-99.99,,,-99.99,,2013-05-31 08:02:00,
2013-05-31 04:11:00,73.0,-99.9,-100.00,SSE,164,3.0,-999.0,-999,-99.99,,,-99.99,,2013-05-31 08:11:00,
2013-05-31 04:22:00,72.0,-99.9,-100.00,SSE,168,0.0,-999.0,-999,-99.99,,,-99.99,,2013-05-31 08:22:00,
2013-05-31 04:32:00,72.0,-99.9,-100.00,SSW,193,0.0,-999.0,-999,-99.99,,,-99.99,,2013-05-31 08:32:00,
2013-05-31 04:42:00,72.0,-99.9,-100.00,SSW,193,0.0,-999.0,-999,-99.99,,,-99.99,,2013-05-31 08:42:00,
2013-05-31 04:52:00,72.0,-99.9,-100.00,SSW,193,0.0,-999.0,-999,-99.99,,,-99.99,,2013-05-31 08:52:00,
2013-05-31 05:01:00,72.0,-99.9,-100.00,SSW,193,0.0,-999.0,-999,-99.99,,,-99.99,,2013-05-31 09:01:00,
2013-05-31 05:11:00,72.0,-99.9,-100.00,SSW,193,0.0,-999.0,-999,-99.99,,,-99.99,,2013-05-31 09:11:00,
2013-05-31 05:21:00,72.0,-99.9,-100.00,SSW,193,2.0,-999.0,-999,-99.99,,,-99.99,,2013-05-31 09:21:00,
2013-05-31 05:33:00,71.0,-99.9,-100.00,SSW,193,0.0,-999.0,-999,-99.99,,,-99.99,,2013-05-31 09:33:00,
2013-05-31 05:43:00,71.0,-99.9,-100.00,SSW,193,0.0,-999.0,-999,-99.99,,,-99.99,,2013-05-31 09:43:00,
2013-05-31 05:53:00,71.0,-99.9,-100.00,SSW,193,0.0,-999.0,-999,-99.99,,,-99.99,,2013-05-31 09:53:00,
2013-05-31 06:02:00,71.0,-99.9,-100.00,SSW,193,1.0,-999.0,-999,-99.99,,,-99.99,,2013-05-31 10:02:00,
2013-05-31 06:12:00,71.0,-99.9,-100.00,SSW,192,0.0,-999.0,-999,-99.99,,,-99.99,,2013-05-31 10:12:00,
2013-05-31 06:23:00,71.0,-99.9,-100.00,SSW,192,0.0,-999.0,-999,-99.99,,,-99.99,,2013-05-31 10:23:00,
2013-05-31 06:33:00,71.0,-99.9,-100.00,South,191,0.0,-999.0,-999,-99.99,,,-99.99,,2013-05-31 10:33:00,
2013-05-31 06:42:00,71.0,-99.9,-100.00,South,191,0.0,-999.0,-999,-99.99,,,-99.99,,2013-05-31 10:42:00,
2013-05-31 06:53:00,72.0,-99.9,-100.00,South,190,4.0,-999.0,-999,-99.99,,,-99.99,,2013-05-31 10:53:00,
2013-05-31 07:02:00,72.0,-99.9,-100.00,SSW,195,3.0,-999.0,-999,-99.99,,,-99.99,,2013-05-31 11:02:00,
2013-05-31 07:12:00,72.0,-99.9,-100.00,SSW,195,3.0,-999.0,-999,-99.99,,,-99.99,,2013-05-31 11:12:00,
2013-05-31 07:22:00,72.0,-99.9,-100.00,SSW,195,3.0,-999.0,-999,-99.99,,,-99.99,,2013-05-31 11:22:00,
2013-05-31 07:32:00,72.0,-99.9,-100.00,SSE,148,0.0,-999.0,-999,-99.99,,,-99.99,,2013-05-31 11:32:00,
2013-05-31 07:42:00,72.0,-99.9,-100.00,SSE,148,0.0,-999.0,-999,-99.99,,,-99.99,,2013-05-31 11:42:00,
2013-05-31 07:52:00,72.0,-99.9,-100.00,South,189,4.0,-999.0,-999,-99.99,,,-99.99,,2013-05-31 11:52:00,
2013-05-31 08:01:00,72.0,-99.9,-100.00,SW,229,0.0,-999.0,-999,-99.99,,,-99.99,,2013-05-31 12:01:00,
2013-05-31 08:11:00,72.0,-99.9,-100.00,SW,229,0.0,-999.0,-999,-99.99,,,-99.99,,2013-05-31 12:11:00,
2013-05-31 08:22:00,71.0,-99.9,-100.00,West,263,0.0,-999.0,-999,-99.99,,,-99.99,,2013-05-31 12:22:00,
2013-05-31 08:32:00,71.0,-99.9,-100.00,West,263,0.0,-999.0,-999,-99.99,,,-99.99,,2013-05-31 12:32:00,
2013-05-31 08:42:00,71.0,-99.9,-100.00,West,263,0.0,-999.0,-999,-99.99,,,-99.99,,2013-05-31 12:42:00,
2013-05-31 08:52:00,70.0,-99.9,-100.00,West,259,0.0,-999.0,-999,-99.99,,,-99.99,,2013-05-31 12:52:00,
2013-05-31 09:02:00,70.0,-99.9,-100.00,SW,235,3.0,-999.0,-999,-99.99,,,-99.99,,2013-05-31 13:02:00,
2013-05-31 09:11:00,70.0,-99.9,-100.00,SW,235,3.0,-999.0,-999,-99.99,,,-99.99,,2013-05-31 13:11:00,
2013-05-31 09:22:00,70.0,-99.9,-100.00,SW,233,0.0,-999.0,-999,-99.99,,,-99.99,,2013-05-31 13:22:00,
2013-05-31 09:32:00,69.0,-99.9,-100.00,SSW,199,0.0,-999.0,-999,-99.99,,,-99.99,,2013-05-31 13:32:00,
2013-05-31 09:42:00,69.0,-99.9,-100.00,SSW,199,0.0,-999.0,-999,-99.99,,,-99.99,,2013-05-31 13:42:00,
2013-05-31 09:52:00,68.0,-99.9,-100.00,SSW,198,0.0,-999.0,-999,-99.99,,,-99.99,,2013-05-31 13:52:00,
2013-05-31 10:02:00,69.0,-99.9,-100.00,SSW,198,0.0,-999.0,-999,-99.99,,,-99.99,,2013-05-31 14:02:00,
2013-05-31 10:11:00,69.0,-99.9,-100.00,SSW,198,0.0,-999.0,-999,-99.99,,,-99.99,,2013-05-31 14:11:00,
2013-05-31 10:22:00,68.0,-99.9,-100.00,SSW,193,3.0,-999.0,-999,-99.99,,,-99.99,,2013-05-31 14:22:00,
2013-05-31 10:32:00,69.0,-99.9,-100.00,SSW,197,0.0,-999.0,-999,-99.99,,,-99.99,,2013-05-31 14:32:00,
2013-05-31 10:42:00,69.0,-99.9,-100.00,SSW,197,0.0,-999.0,-999,-99.99,,,-99.99,,2013-05-31 14:42:00,
2013-05-31 10:52:00,70.0,-99.9,-100.00,SSW,205,0.0,-999.0,-999,-99.99,,,-99.99,,2013-05-31 14:52:00,
2013-05-31 11:01:00,70.0,-99.9,-100.00,South,188,0.0,-999.0,-999,-99.99,,,-99.99,,2013-05-31 15:01:00,
2013-05-31 11:11:00,70.0,-99.9,-100.00,South,188,0.0,-999.0,-999,-99.99,,,-99.99,,2013-05-31 15:11:00,
2013-05-31 11:22:00,70.0,-99.9,-100.00,South,179,0.0,-999.0,-999,-99.99,,,-99.99,,2013-05-31 15:22:00,
2013-05-31 11:33:00,71.0,-99.9,-100.00,South,189,3.0,-999.0,-999,-99.99,,,-99.99,,2013-05-31 15:33:00,
2013-05-31 11:43:00,71.0,-99.9,-100.00,South,189,3.0,-999.0,-999,-99.99,,,-99.99,,2013-05-31 15:43:00,
2013-05-31 11:53:00,71.0,-99.9,-100.00,SSE,164,3.0,-999.0,-999,-99.99,,,-99.99,,2013-05-31 15:53:00,
2013-05-31 12:03:00,72.0,-99.9,-100.00,SSW,193,0.0,-999.0,-999,-99.99,,,-99.99,,2013-05-31 16:03:00,
2013-05-31 12:13:00,72.0,-99.9,-100.00,SSW,205,2.0,-999.0,-999,-99.99,,,-99.99,,2013-05-31 16:13:00,
2013-05-31 12:22:00,72.0,-99.9,-100.00,SSW,205,2.0,-999.0,-999,-99.99,,,-99.99,,2013-05-31 16:22:00,
2013-05-31 12:33:00,72.0,-99.9,-100.00,SSW,194,4.0,-999.0,-999,-99.99,,,-99.99,,2013-05-31 16:33:00,
2013-05-31 12:42:00,72.0,-99.9,-100.00,SSW,194,4.0,-999.0,-999,-99.99,,,-99.99,,2013-05-31 16:42:00,
2013-05-31 12:53:00,72.0,-99.9,-100.00,SSW,201,3.0,-999.0,-999,-99.99,,,-99.99,,2013-05-31 16:53:00,
2013-05-31 13:02:00,72.0,-99.9,-100.00,SSW,199,0.0,-999.0,-999,-99.99,,,-99.99,,2013-05-31 17:02:00,
2013-05-31 13:12:00,72.0,-99.9,-100.00,SSW,199,0.0,-999.0,-999,-99.99,,,-99.99,,2013-05-31 17:12:00,
2013-05-31 13:22:00,72.0,-99.9,-100.00,SSW,200,0.0,-999.0,-999,-99.99,,,-99.99,,2013-05-31 17:22:00,
2013-05-31 13:32:00,72.0,-99.9,-100.00,WSW,237,2.0,-999.0,-999,-99.99,,,-99.99,,2013-05-31 17:32:00,
2013-05-31 13:42:00,72.0,-99.9,-100.00,WSW,237,2.0,-999.0,-999,-99.99,,,-99.99,,2013-05-31 17:42:00,
2013-05-31 13:53:00,72.0,-99.9,-100.00,South,189,1.0,-999.0,-999,-99.99,,,-99.99,,2013-05-31 17:53:00,
2013-05-31 14:02:00,72.0,-99.9,-100.00,NW,322,0.0,-999.0,-999,-99.99,,,-99.99,,2013-05-31 18:02:00,
2013-05-31 14:12:00,72.0,-99.9,-100.00,NW,322,0.0,-999.0,-999,-99.99,,,-99.99,,2013-05-31 18:12:00,
2013-05-31 14:22:00,74.0,-99.9,-100.00,SSE,163,3.0,-999.0,-999,-99.99,,,-99.99,,2013-05-31 18:22:00,
2013-05-31 14:32:00,74.0,-99.9,-100.00,SSW,196,1.0,-999.0,-999,-99.99,,,-99.99,,2013-05-31 18:32:00,
2013-05-31 14:42:00,74.0,-99.9,-100.00,SSW,196,1.0,-999.0,-999,-99.99,,,-99.99,,2013-05-31 18:42:00,
2013-05-31 14:52:00,73.0,-99.9,-100.00,SSE,162,3.0,-999.0,-999,-99.99,,,-99.99,,2013-05-31 18:52:00,
2013-05-31 15:02:00,73.0,-99.9,-100.00,SSW,202,2.0,-999.0,-999,-99.99,,,-99.99,,2013-05-31 19:02:00,
2013-05-31 15:12:00,73.0,-99.9,-100.00,SSW,202,2.0,-999.0,-999,-99.99,,,-99.99,,2013-05-31 19:12:00,
2013-05-31 15:22:00,73.0,-99.9,-100.00,South,171,0.0,-999.0,-999,-99.99,,,-99.99,,2013-05-31 19:22:00,
2013-05-31 15:32:00,72.0,-99.9,-100.00,SSW,199,0.0,-999.0,-999,-99.99,,,-99.99,,2013-05-31 19:32:00,
2013-05-31 15:42:00,72.0,-99.9,-100.00,South,182,3.0,-999.0,-999,-99.99,,,-99.99,,2013-05-31 19:42:00,
2013-05-31 15:52:00,72.0,-99.9,-100.00,South,182,3.0,-999.0,-999,-99.99,,,-99.99,,2013-05-31 19:52:00,
2013-05-31 16:02:00,71.0,-99.9,-100.00,South,190,3.0,-999.0,-999,-99.99,,,-99.99,,2013-05-31 20:02:00,
2013-05-31 16:11:00,71.0,-99.9,-100.00,South,190,3.0,-999.0,-999,-99.99,,,-99.99,,2013-05-31 20:11:00,
2013-05-31 16:22:00,72.0,-99.9,-100.00,South,178,0.0,-999.0,-999,-99.99,,,-99.99,,2013-05-31 20:22:00,
2013-05-31 16:32:00,73.0,-99.9,-100.00,South,183,0.0,-999.0,-999,-99.99,,,-99.99,,2013-05-31 20:32:00,
2013-05-31 16:42:00,73.0,-99.9,-100.00,South,183,0.0,-999.0,-999,-99.99,,,-99.99,,2013-05-31 20:42:00,
2013-05-31 16:52:00,73.0,-99.9,-100.00,South,170,1.0,-999.0,-999,-99.99,,,-99.99,,2013-05-31 20:52:00,
2013-05-31 17:01:00,73.0,-99.9,-100.00,South,175,0.0,-999.0,-999,-99.99,,,-99.99,,2013-05-31 21:01:00,
2013-05-31 17:12:00,73.0,-99.9,-100.00,South,175,0.0,-999.0,-999,-99.99,,,-99.99,,2013-05-31 21:12:00,
2013-05-31 17:22:00,74.0,-99.9,-100.00,South,189,0.0,-999.0,-999,-99.99,,,-99.99,,2013-05-31 21:22:00,
2013-05-31 17:33:00,74.0,-99.9,-100.00,SSW,203,1.0,-999.0,-999,-99.99,,,-99.99,,2013-05-31 21:33:00,
2013-05-31 17:43:00,74.0,-99.9,-100.00,South,190,0.0,-999.0,-999,-99.99,,,-99.99,,2013-05-31 21:43:00,
2013-05-31 17:54:00,74.0,-99.9,-100.00,South,190,0.0,-999.0,-999,-99.99,,,-99.99,,2013-05-31 21:54:00,
2013-05-31 18:03:00,73.0,-99.9,-100.00,South,189,0.0,-999.0,-999,-99.99,,,-99.99,,2013-05-31 22:03:00,
2013-05-31 18:12:00,73.0,-99.9,-100.00,South,189,0.0,-999.0,-999,-99.99,,,-99.99,,2013-05-31 22:12:00,
2013-05-31 18:23:00,74.0,-99.9,-100.00,South,189,0.0,-999.0,-999,-99.99,,,-99.99,,2013-05-31 22:23:00,
2013-05-31 18:33:00,73.0,-99.9,-100.00,South,190,0.0,-999.0,-999,-99.99,,,-99.99,,2013-05-31 22:33:00,
2013-05-31 18:42:00,73.0,-99.9,-100.00,South,190,1.0,-999.0,-999,-99.99,,,-99.99,,2013-05-31 22:42:00,
2013-05-31 18:53:00,73.0,-99.9,-100.00,South,190,1.0,-999.0,-999,-99.99,,,-99.99,,2013-05-31 22:53:00,
2013-05-31 19:02:00,73.0,-99.9,-100.00,South,189,0.0,-999.0,-999,-99.99,,,-99.99,,2013-05-31 23:02:00,
2013-05-31 19:12:00,73.0,-99.9,-100.00,South,189,0.0,-999.0,-999,-99.99,,,-99.99,,2013-05-31 23:12:00,
2013-05-31 19:22:00,73.0,-99.9,-100.00,SSW,193,3.0,-999.0,-999,-99.99,,,-99.99,,2013-05-31 23:22:00,
2013-05-31 19:32:00,74.0,-99.9,-100.00,SSW,193,0.0,-999.0,-999,-99.99,,,-99.99,,2013-05-31 23:32:00,
2013-05-31 19:43:00,74.0,-99.9,-100.00,SSW,193,0.0,-999.0,-999,-99.99,,,-99.99,,2013-05-31 23:43:00,
2013-05-31 19:52:00,74.0,-99.9,-100.00,SSW,193,0.0,-999.0,-999,-99.99,,,-99.99,,2013-05-31 23:52:00,
2013-05-31 20:01:00,74.0,-99.9,-100.00,SSW,195,4.0,-999.0,-999,-99.99,,,-99.99,,2013-06-01 00:01:00,
2013-05-31 20:12:00,74.0,-99.9,-100.00,South,191,0.0,-999.0,-999,-99.99,,,-99.99,,2013-06-01 00:12:00,
2013-05-31 20:22:00,74.0,-99.9,-100.00,South,191,0.0,-999.0,-999,-99.99,,,-99.99,,2013-06-01 00:22:00,
2013-05-31 20:32:00,73.0,-99.9,-100.00,South,190,0.0,-999.0,-999,-99.99,,,-99.99,,2013-06-01 00:32:00,
2013-05-31 20:42:00,73.0,-99.9,-100.00,South,190,0.0,-999.0,-999,-99.99,,,-99.99,,2013-06-01 00:42:00,
2013-05-31 20:52:00,73.0,-99.9,-100.00,South,190,0.0,-999.0,-999,-99.99,,,-99.99,,2013-06-01 00:52:00,
2013-05-31 21:02:00,73.0,-99.9,-100.00,SSW,193,7.0,-999.0,-999,-99.99,,,-99.99,,2013-06-01 01:02:00,
2013-05-31 21:11:00,72.0,-99.9,-100.00,SSW,194,0.0,-999.0,-999,-99.99,,,-99.99,,2013-06-01 01:11:00,
2013-05-31 21:22:00,72.0,-99.9,-100.00,SSW,194,0.0,-999.0,-999,-99.99,,,-99.99,,2013-06-01 01:22:00,
2013-05-31 21:32:00,72.0,-99.9,-100.00,SSW,198,0.0,-999.0,-999,-99.99,,,-99.99,,2013-06-01 01:32:00,
2013-05-31 21:42:00,72.0,-99.9,-100.00,SSW,198,2.0,-999.0,-999,-99.99,,,-99.99,,2013-06-01 01:42:00,
2013-05-31 21:52:00,72.0,-99.9,-100.00,SSW,198,2.0,-999.0,-999,-99.99,,,-99.99,,2013-06-01 01:52:00,
2013-05-31 22:02:00,72.0,-99.9,-100.00,South,174,3.0,-999.0,-999,-99.99,,,-99.99,,2013-06-01 02:02:00,
2013-05-31 22:12:00,72.0,-99.9,-100.00,South,182,0.0,-999.0,-999,-99.99,,,-99.99,,2013-06-01 02:12:00,
2013-05-31 22:22:00,72.0,-99.9,-100.00,South,182,0.0,-999.0,-999,-99.99,,,-99.99,,2013-06-01 02:22:00,
2013-05-31 22:32:00,72.0,-99.9,-100.00,South,181,0.0,-999.0,-999,-99.99,,,-99.99,,2013-06-01 02:32:00,
2013-05-31 22:42:00,72.0,-99.9,-100.00,South,181,0.0,-999.0,-999,-99.99,,,-99.99,,2013-06-01 02:42:00,
2013-05-31 22:52:00,72.0,-99.9,-100.00,South,181,0.0,-999.0,-999,-99.99,,,-99.99,,2013-06-01 02:52:00,
2013-05-31 23:02:00,72.0,-99.9,-100.00,SSE,158,0.0,-999.0,-999,-99.99,,,-99.99,,2013-06-01 03:02:00,
2013-05-31 23:12:00,69.0,-99.9,-100.00,NNE,15,8.0,-999.0,-999,-99.99,,,-99.99,,2013-06-01 03:12:00,
2013-05-31 23:22:00,69.0,-99.9,-100.00,NNE,15,8.0,-999.0,-999,-99.99,,,-99.99,,2013-06-01 03:22:00,
2013-05-31 23:33:00,67.0,-99.9,-100.00,NNE,30,0.0,-999.0,-999,-99.99,,,-99.99,,2013-06-01 03:33:00,
2013-05-31 23:43:00,66.0,-99.9,-100.00,NE,34,3.0,-999.0,-999,-99.99,,,-99.99,,2013-06-01 03:43:00,
2013-05-31 23:53:00,66.0,-99.9,-100.00,NE,34,3.0,-999.0,-999,-99.99,,,-99.99,,2013-06-01 03:53:00,